SCP
0 0 0 0 0 0 0 0 0 0 0 0 0 0 0 0 0 0 0 0 0 0 0 0 0 0 0 0 0 0 0 0 0 0 0 0 0 0 0 0 0 0 0
0 0 0 0 0 0 0 0 0 0 0 0 0 0 0 0 0 0 0 0 0 0 0 0 0 0 0 0 0 0 0 0 0 0 0 0 0 0 0 0 0 0 0
0 0 0 0 0 0 0 0 0 0 0 0 0 0 0 0 0 0 0 0 0 0 0 0 0 0 0 0 0 0 0 0 0 0 0 0 0 0 0 0 0 0 0
0 0 0 0 0 0 0 0 0 0 0 0 0 0 0 0 0 0 0 0 0 0 0 0 0 0 0 0 0 0 0 0 0 0 0 0 0 0 0 0 0 0 0
0 0 0 0 0 0 0 0 0 0 0 0 0 0 0 0 0 0 0 0 0 0 0 0 0 0 0 0 0 0 0 0 0 0 0 0 0 0 0 0 0 0 0
0 0 0 0 0 0 0 0 0 0 0 0 0 0 0 0 0 0 0 0 0 0 0 0 0 0 0 0 0 0 0 0 0 0 0 0 0 0 0 0 0 0 0
0 0 0 0 0 0 0 0 0 0 0 0 0 0 0 0 0 0 0 0 0 0 0 0 0 0 0 0 0 0 0 0 0 0 0 0 0 0 0 0 0 0 0
0 0 0 0 0 0 0 0 0 0 0 0 0 0 0 0 0 0 0 0 0 0 0 0 0 0 0 0 0 0 0 0 0 0 0 0 0 0 0 0 0 0 0
0 0 0 0 0 0 0 0 0 0 0 0 0 0 0 0 0 0 0 0 0 0 0 0 0 0 0 0 0 0 0 0 0 0 0 0 0 0 0 0 0 0 0
0 0 0 0 0 0 0 0 0 0 0 0 0 0 0 0 0 0 0 0 0 0 0 0 0 0 0 0 0 0 0 0 0 0 0 0 0 0 0 0 0 0 0
0 0 0 0 0 0 0 0 0 0 0 0 0 0 0 0 0 0 0 0 0 0 0 0 0 0 0 0 0 0 0 0 0 0 0 0 0 0 0 0 0 0 0
0 0 0 0 0 0 0 0 0 0 0 0 0 0 0 0 0 0 0 0 0 0 0 0 0 0 0 0 0 0 0 0 0 0 0 0 0 0 0 0 0 0 0
0 0 0 0 0 0 0 0 0 0 0 0 0 0 0 0 0 0 0 0 0 0 0 0 0 0 0 0 0 0 0 0 0 0 0 0 0 0 0 0 0 0 0
0 0 0 0 0 0 0 0 0 0 0 0 0 0 0 0 0 0 0 0 0 0 0 0 0 0 0 0 0 0 0 0 0 0 0 0 0 0 0 0 0 0 0
0 0 0 0 0 0 0 0 0 0 0 0 0 0 0 0 0 0 0 0 0 0 0 0 0 0 0 0 0 0 0 0 0 0 0 0 0 0 0 0 0 0 0
0 0 0 0 0 0 0 0 0 0 0 0 0 0 0 0 0 0 0 0 0 0 0 0 0 0 0 0 0 0 0 0 0 0 0 0 0 0 0 0 0 0 0
0 0 0 0 0 0 0 0 0 0 0 0 0 0 0 0 0 0 0 0 0 0 0 0 0 0 0 0 0 0 0 0 0 0 0 0 0 0 0 0 0 0 0
0 0 0 0 0 0 0 0 0 0 0 0 0 0 0 0 0 0 0 0 0 0 0 0 0 0 0 0 0 0 0 0 0 0 0 0 0 0 0 0 0 0 0
0 0 0 0 0 0 0 0 0 0 0 0 0 0 0 0 0 0 0 0 0 0 0 0 0 0 0 0 0 0 0 0 0 0 0 0 0 0 0 0 0 0 0
0 0 0 0 0 0 0 0 0 0 0 0 0 0 0 0 0 0 0 0 0 0 0 0 0 0 0 0 0 0 0 0 0 0 0 0 0 0 0 0 0 0 0
0 0 0 0 0 0 0 0 0 0 0 0 0 0 0 0 0 0 0 0 0 0 0 0 0 0 0 0 0 0 0 0 0 0 0 0 0 0 0 0 0 0 0
0 0 0 0 0 0 0 0 0 0 0 0 0 0 0 0 0 0 0 0 0 0 0 0 0 0 0 0 0 0 0 0 0 0 0 0 0 0 0 0 0 0 0
0 0 0 0 0 0 0 0 0 0 0 0 0 0 0 0 0 0 0 0 0 0 0 0 0 0 0 0 0 0 0 0 0 0 0 0 0 0 0 0 0 0 0
0 0 0 0 0 0 0 0 0 0 0 0 0 0 0 0 0 0 0 0 0 0 0 0 0 0 0 0 0 0 0 0 0 0 0 0 0 0 0 0 0 0 0
0 0 0 0 0 0 0 0 0 0 0 0 0 0 0 0 0 0 0 0 0 0 0 0 0 0 0 0 0 0 0 0 0 0 0 0 0 0 0 0 0 0 0
0 0 0 0 0 0 0 0 0 0 0 0 0 0 0 0 0 0 0 0 0 0 0 0 0 0 0 0 0 0 0 0 0 0 0 0 0 0 0 0 0 0 0
Wind_Speed
4 4 3 3 3 3 3 3 4 4 5 5 5 5 6 6 6 5 5 13 16 18 19 19 19 19 19 19 19 19 19 19 19 19 19 18 18 18 17 17 17 16 16
4 4 4 4 4 4 4 4 5 5 4 4 5 5 6 6 6 6 6 9 17 19 20 21 21 21 21 20 20 20 20 20 21 21 21 21 20 20 20 20 19 19 18
5 5 4 4 4 4 4 3 4 3 3 4 5 5 5 5 6 7 7 6 7 15 20 22 22 22 22 22 21 21 21 22 22 22 22 22 23 22 22 22 22 21 21
5 4 4 4 4 3 3 3 3 3 3 3 4 4 4 4 6 7 6 6 6 6 12 20 22 23 23 23 22 22 22 22 22 23 23 24 24 24 24 24 24 24 23
5 4 3 3 3 2 2 2 2 2 3 4 4 4 4 5 6 7 8 8 7 7 6 13 20 22 22 23 23 22 22 22 22 23 23 24 25 25 26 26 26 26 26
3 3 2 3 2 2 2 2 2 2 2 3 4 5 5 6 5 6 8 7 6 7 6 7 8 12 19 21 22 22 23 22 22 22 23 23 24 25 26 26 27 27 28
2 2 2 2 2 2 2 2 2 2 2 1 2 4 5 5 5 5 5 5 6 6 6 6 5 5 7 17 21 22 23 23 23 23 23 23 23 24 25 26 27 27 28
1 2 2 2 2 1 2 2 1 1 2 1 1 3 5 5 4 3 3 4 5 4 5 5 5 6 6 5 12 22 24 25 25 25 24 24 24 24 24 25 26 27 28
1 1 2 2 1 1 2 2 2 3 3 2 2 2 3 4 4 4 4 4 4 4 4 5 6 6 7 6 7 14 22 24 25 26 25 25 25 24 24 24 25 26 27
0 1 1 1 1 1 2 2 2 2 2 3 2 3 5 4 4 5 3 4 5 6 6 6 6 7 8 6 10 18 23 24 25 26 27 27 26 26 25 25 25 25 25
1 0 1 1 1 1 2 3 2 2 3 3 3 3 3 3 5 6 9 5 4 5 6 7 7 7 8 7 7 13 23 24 25 26 26 26 27 27 27 26 25 24 24
1 1 0 0 1 2 3 3 3 4 4 4 4 4 4 4 4 5 8 9 8 6 6 6 7 7 7 7 10 20 23 24 25 25 25 26 26 27 27 27 26 25 25
1 2 1 1 2 3 3 3 3 4 4 5 5 4 5 6 5 5 8 10 10 6 5 5 6 7 7 6 8 20 21 24 24 25 25 26 26 26 27 27 26 26 25
2 2 2 2 3 4 4 3 3 4 4 5 6 6 5 5 5 5 5 8 12 8 5 6 4 6 6 6 11 20 13 23 25 25 26 26 26 26 27 27 27 26 25
2 2 2 3 4 4 4 4 3 5 5 5 6 6 5 5 4 5 5 5 7 13 11 5 4 5 6 6 13 10 8 18 25 25 26 26 26 26 26 27 26 26 25
1 2 3 3 4 4 4 4 4 5 5 5 5 6 6 5 5 4 5 5 6 10 14 4 5 6 7 10 16 12 9 24 26 26 26 27 27 27 27 26 26 26 26
2 2 3 4 4 5 5 4 5 6 6 7 6 7 8 7 5 5 5 5 6 7 15 11 5 6 8 10 11 10 10 10 11 24 26 27 26 26 26 26 26 26 26
2 3 3 4 5 5 5 6 7 7 7 8 8 8 9 7 8 6 6 7 7 8 11 17 10 6 8 9 10 11 11 11 9 19 25 26 26 26 25 25 25 25 25
3 4 4 5 6 6 6 7 7 8 8 8 9 9 9 9 9 8 8 8 8 9 9 12 13 8 7 7 9 10 11 10 11 15 20 22 23 24 24 24 24 24 24
4 5 5 6 6 7 7 7 7 8 8 9 9 9 9 9 10 10 9 9 9 9 9 11 12 10 8 7 7 8 9 6 8 10 14 17 20 23 24 24 24 23 23
5 5 5 6 6 6 6 7 7 8 8 8 8 9 9 13 16 14 12 9 8 8 9 10 11 11 9 6 7 6 10 8 8 8 8 9 9 8 10 17 20 22 23
5 5 6 7 7 7 13 18 14 7 7 8 8 8 9 12 16 21 23 23 20 14 11 11 12 12 12 10 8 8 10 11 10 4 6 7 5 7 7 7 16 22 22
5 6 7 7 8 10 17 19 19 11 7 7 8 8 9 10 17 10 17 22 20 24 24 17 15 15 14 12 11 12 11 12 12 6 7 10 7 9 8 10 21 23 23
5 6 7 7 8 11 18 20 21 10 7 8 8 9 10 10 11 14 12 12 11 13 16 13 12 14 14 13 12 14 14 13 11 8 7 10 7 8 8 7 17 22 22
6 6 6 7 8 11 17 20 20 7 7 8 8 9 11 10 18 24 16 13 13 11 17 23 24 22 25 25 20 10 9 10 11 7 5 6 6 6 6 7 11 19 20
6 6 7 7 8 9 16 20 20 6 7 8 8 8 16 18 22 25 15 12 15 13 11 12 14 16 14 15 20 12 8 10 9 7 4 4 4 4 5 4 4 5 7
Wind_Direction
188 189 196 199 204 205 211 225 235 244 248 252 249 245 249 249 250 248 257 269 277 282 285 286 286 285 284 284 282 280 277 275 273 271 268 265 263 262 262 261 260 259 258
186 189 198 204 211 213 216 219 226 232 239 243 252 249 247 249 250 252 250 265 273 279 283 284 285 286 285 285 285 284 282 279 275 273 272 269 266 263 261 260 259 258 257
190 194 200 208 217 216 218 224 234 235 247 249 256 259 256 253 256 258 259 254 264 274 280 283 285 286 286 286 286 286 285 284 282 278 275 272 270 267 263 260 258 257 256
196 196 203 216 219 213 211 221 230 240 250 255 261 266 265 266 266 264 263 261 257 263 274 280 284 286 286 287 287 287 287 287 286 284 281 277 273 270 267 264 260 257 255
196 193 207 221 217 212 217 231 233 233 256 266 270 272 270 268 268 271 270 269 264 261 260 276 282 284 286 287 287 288 288 288 287 287 286 284 280 275 271 268 265 261 257
190 188 204 221 211 214 236 242 252 253 254 267 286 287 277 270 267 266 271 277 275 270 267 268 276 282 284 287 288 289 290 290 289 288 287 286 285 282 278 273 269 265 262
187 186 200 216 210 218 237 246 254 273 277 276 312 306 289 278 277 271 273 279 283 283 282 277 274 272 283 287 291 292 293 293 292 291 289 287 286 285 284 281 276 271 267
188 188 198 214 220 229 262 263 243 267 276 230 233 315 319 324 325 291 283 275 277 291 296 297 292 281 275 277 283 291 294 293 292 291 289 287 285 284 284 283 282 279 274
190 189 196 196 210 205 245 258 244 236 266 274 194 213 276 282 301 285 276 273 283 287 287 291 288 284 280 275 280 290 294 294 293 291 289 286 284 282 281 280 280 280 279
184 183 178 175 193 208 244 259 242 226 230 264 264 226 228 240 275 298 289 283 279 275 274 278 280 279 276 275 278 289 295 296 295 292 290 288 285 282 280 279 279 279 279
356 7 156 158 217 248 263 270 273 251 226 236 242 247 254 251 230 259 284 283 280 262 262 265 269 271 271 269 271 281 292 295 295 294 293 291 289 285 282 280 279 279 280
347 348 19 203 260 264 266 265 262 260 250 249 248 239 238 247 251 249 273 286 284 274 259 254 259 264 265 266 270 284 291 293 293 294 294 293 292 289 285 281 278 276 277
286 282 272 267 269 268 271 270 269 268 260 257 255 252 246 245 249 257 274 287 288 284 263 252 250 258 266 262 269 283 288 290 291 292 292 293 292 292 289 284 280 276 275
232 253 264 272 278 283 285 281 276 272 269 265 268 266 263 261 255 253 263 288 297 291 267 261 259 255 264 265 269 284 282 286 289 289 289 290 290 289 289 287 283 279 275
244 264 281 287 290 291 288 288 277 279 280 271 270 271 267 265 261 258 258 259 280 298 295 264 266 260 265 268 278 280 268 280 288 288 288 288 288 288 287 285 283 280 277
258 289 295 294 294 294 292 288 283 279 279 276 269 270 268 266 263 258 255 255 253 276 288 275 267 264 271 283 286 286 278 287 289 289 288 287 286 285 285 284 282 279 277
273 286 290 293 294 294 292 287 282 283 280 281 280 276 274 272 268 264 260 259 261 266 284 290 268 263 263 268 278 276 276 275 277 283 285 285 285 284 283 282 281 279 277
276 282 288 291 291 291 289 285 285 286 282 282 281 279 277 278 272 268 264 264 266 264 276 290 290 275 264 265 269 271 277 277 272 280 284 285 284 284 283 282 281 279 278
284 289 288 287 287 287 286 282 279 279 277 275 275 275 275 276 275 271 267 269 271 275 272 281 289 284 274 270 273 272 271 272 273 279 283 285 285 285 284 284 283 282 280
279 283 282 281 281 283 283 282 280 277 274 272 269 267 268 266 269 272 273 270 272 275 274 279 286 288 282 270 265 273 279 268 270 275 279 279 281 283 284 285 284 284 282
274 276 281 284 283 283 278 280 278 272 272 273 271 266 265 273 278 285 287 281 277 278 281 284 287 288 285 280 274 272 281 282 272 263 266 268 271 269 273 278 281 282 281
275 276 277 279 282 284 297 305 306 290 281 278 280 278 277 283 288 294 296 296 293 288 287 284 286 286 287 283 279 277 281 285 285 242 247 261 252 261 263 258 270 275 275
270 276 276 275 276 281 297 306 308 306 287 280 280 282 287 286 297 285 288 291 290 287 286 283 283 283 284 282 281 279 275 274 276 268 263 274 260 262 260 265 273 274 274
266 271 274 274 275 283 299 308 310 305 285 278 275 274 277 280 280 287 280 276 272 273 276 278 271 273 274 273 267 271 274 275 271 263 251 270 267 263 265 258 268 272 274
269 268 269 273 276 284 298 307 309 293 281 279 275 274 281 279 286 296 295 287 285 280 284 284 282 284 286 289 289 286 281 283 283 274 234 250 264 269 265 260 264 269 271
266 272 275 273 273 276 292 304 307 291 284 282 277 271 284 291 295 298 294 289 290 290 285 285 285 287 286 285 287 280 276 278 280 278 236 233 258 270 275 255 259 268 273